Watsonville, CA

2:52 AM PST on December 16, 2019 (GMT -0800)
Watsonville Municipal

Weather History for KWVI - November, 2019

Change the Weather History Date:

Monday, November 11, 2019

  Actual Average Record
Temperature  
Mean Temperature 63 °F 56 °F  
Max Temperature 82 °F 67 °F 82 °F (2019)
Min Temperature 43 °F 44 °F 34 °F (2000)
Degree Days  
Heating Degree Days 2    
Month to date heating degree days 66  
Since 1 July heating degree days 262  
Cooling Degree Days 0    
Month to date cooling degree days 0  
Year to date cooling degree days 270  
Growing Degree Days 12 (Base 50)    
Moisture  
Dew Point 48 °F    
Average Humidity 65    
Maximum Humidity 100    
Minimum Humidity 30    
Precipitation  
Precipitation 0.00 in - 3.59 in (1983)
Month to date precipitation 0.00  
Year to date precipitation 22.88  
Sea Level Pressure  
Sea Level Pressure 30.04 in    
Wind  
Wind Speed 2 mph (SW)    
Max Wind Speed 10 mph    
Max Gust Speed 12 mph    
Visibility 5 miles    
Events Fog    
T = Trace of Precipitation, MM = Missing Value Source: NWS Daily Summary

Daily Weather History Graph

Daily Weather History Graph

Search for Another Location

Airport or City:

Astronomy

Nov. 11, 2019 Rise Set
Actual Time 6:41 AM PST 5:00 PM PST
Civil Twilight 6:13 AM PST 5:28 PM PST
Nautical Twilight 5:42 AM PST 5:59 PM PST
Astronomical Twilight 5:12 AM PST 6:29 PM PST
Moon 4:56 PM PST (11/11) 5:40 AM PST (11/11)
Length of Visible Light 11h 14m
Length of Day
10h 19m
Waxing Gibbous, 99% of the Moon is Illuminated
Nov 11
Waxing Gibbous
Nov 12
Full
Nov 19
Last Quarter
Nov 26
New
Dec 3
First Quarter

Hourly Weather History & Observations

Time (PST) Temp. Windchill Dew Point Humidity Pressure Visibility Wind Dir Wind Speed Gust Speed Precip Events Conditions
12:53 AM 50.0 °F - 48.9 °F 96% 30.03 in 0.2 mi Calm Calm - N/A Fog Fog
1:53 AM 48.9 °F - 48.0 °F 97% 30.03 in 0.2 mi Calm Calm - N/A Fog Fog
2:53 AM 46.9 °F - 46.0 °F 97% 30.02 in 0.2 mi Calm Calm - N/A Fog Fog
3:53 AM 46.0 °F 44.8 °F 45.0 °F 96% 30.01 in 0.2 mi NNW 3.5 mph - N/A Fog Fog
4:09 AM 45.0 °F - 44.1 °F 97% 30.01 in 0.8 mi Calm Calm - N/A   Mist
4:19 AM 45.0 °F - 44.1 °F 97% 30.01 in 1.2 mi Calm Calm - N/A   Overcast
4:24 AM 45.0 °F - 44.1 °F 97% 30.01 in 2.5 mi Calm Calm - N/A   Mostly Cloudy
4:31 AM 45.0 °F - 43.0 °F 93% 30.01 in 9.0 mi Calm Calm - N/A   Scattered Clouds
4:53 AM 43.0 °F - 42.1 °F 97% 30.02 in 10.0 mi Calm Calm - N/A   Clear
5:53 AM 43.0 °F 41.3 °F 42.1 °F 97% 30.04 in 10.0 mi North 3.5 mph - N/A   Clear
6:53 AM 45.0 °F - 42.1 °F 90% 30.04 in 10.0 mi Calm Calm - N/A   Clear
7:53 AM 50.0 °F - 46.0 °F 86% 30.05 in 10.0 mi Calm Calm - N/A   Clear
8:53 AM 55.9 °F - 46.9 °F 72% 30.06 in 10.0 mi Calm Calm - N/A   Clear
9:53 AM 64.0 °F - 46.9 °F 54% 30.06 in 10.0 mi Calm Calm - N/A   Clear
10:53 AM 70.0 °F - 46.0 °F 42% 30.06 in 10.0 mi Calm Calm - N/A   Clear
11:53 AM 77.0 °F - 45.0 °F 32% 30.04 in 10.0 mi Variable 3.5 mph - N/A   Clear
12:53 PM 79.0 °F - 45.0 °F 30% 30.01 in 10.0 mi Calm Calm - N/A   Clear
1:53 PM 81.0 °F - 46.0 °F 29% 30.00 in 10.0 mi Variable 4.6 mph - N/A   Clear
2:53 PM 75.0 °F - 43.0 °F 32% 30.01 in 10.0 mi West 8.1 mph - N/A   Clear
3:53 PM 71.1 °F - 45.0 °F 39% 30.03 in 10.0 mi SSW 6.9 mph - N/A   Clear
4:53 PM 57.9 °F - 52.0 °F 81% 30.03 in 10.0 mi SSW 6.9 mph - N/A   Clear
5:53 PM 55.0 °F - 52.0 °F 89% 30.05 in 10.0 mi SSW 4.6 mph - N/A   Clear
6:30 PM 55.0 °F - 52.0 °F 89% 30.06 in 5.0 mi South 5.8 mph - N/A   Scattered Clouds
6:33 PM 55.0 °F - 53.1 °F 93% 30.06 in 2.5 mi South 4.6 mph - N/A   Mostly Cloudy
6:40 PM 55.0 °F - 54.0 °F 96% 30.06 in 1.0 mi SSW 4.6 mph - N/A   Mostly Cloudy
6:53 PM 55.0 °F - 54.0 °F 96% 30.06 in 0.2 mi Calm Calm - N/A Fog Fog
7:53 PM 55.0 °F - 54.0 °F 96% 30.07 in 0.2 mi Calm Calm - N/A Fog Fog
8:09 PM 55.0 °F - 54.0 °F 96% 30.07 in 0.5 mi Calm Calm - N/A Fog Fog
8:50 PM 55.4 °F - 53.6 °F 94% 30.07 in 0.2 mi Calm Calm - N/A Fog Fog
8:53 PM 54.0 °F - 53.1 °F 97% 30.07 in 0.2 mi Calm Calm - N/A Fog Fog
9:53 PM 54.0 °F - 53.1 °F 97% 30.08 in 0.2 mi Calm Calm - N/A Fog Fog
10:53 PM 53.1 °F - 52.0 °F 96% 30.08 in 0.2 mi Calm Calm - N/A Fog Fog
11:53 PM 52.0 °F - 51.1 °F 97% 30.08 in 0.2 mi Calm Calm - N/A Fog Fog